Flag for Kazakhstan Weather past 2 weeks in Qyzylorda, Kazakhstan

Now
25 °F

Overcast.


Feels Like: 11 °F
Forecast: 17 / 27 °F
Wind: 17 mph from North

Location: Kzyl-Orda

Current Time: Mar 29, 2015 at 12:55:18 AM

Latest Report: Mar 29, 2015 at 12:00 AM


Visibility: N/A

Pressure: 30.33 "Hg

Humidity: 80%

Dew point: 19 °F

Location of QyzylordaLocation

Historic Weather in Qyzylorda — Graph

°F

Qyzylorda temperature yesterday

Maximum temperature yesterday: 52 °F (at 3:00 PM)
Minimum temperature yesterday: 28 °F (at 6:00 AM)
Average temperature yesterday: 38 °F

Past Weeks' High & Low Weather Summary

 TemperatureHumidityPressure
High75 °F (Mar 22, 3:00 PM)100% (Mar 14, 4:00 AM)30.60 "Hg (Mar 14, 4:00 AM)
Low19 °F (Mar 16, 5:30 AM)19% (Mar 20, 6:30 PM)29.47 "Hg (Mar 24, 1:00 AM)
Average42 °F62%30.22 "Hg
* Reported Mar 13 11:00 PM — Mar 28 11:00 PM, Qyzylorda, Weather by CustomWeather, © 2015

Note: Actual official high and low records may vary slightly from our data, if they occured in-between our weather recording intervals... More about our weather records

Advertising

Qyzylorda weather history for previous 24 hours

 ConditionsComfort  
Time TempWeatherWind HumidityBarometerVisibility
11:00 PM
Sat, Mar 28
28 °FOvercast.15 mph80%30.30 "HgN/A
10:00 PM28 °FOvercast.17 mph93%30.30 "HgN/A
9:00 PM30 °FLight snow. Overcast.15 mph86%30.27 "Hg6 mi
8:00 PM34 °FOvercast.17 mph81%30.24 "HgN/A
7:30 PM36 °FLight snow. Overcast.15 mph81%30.24 "Hg6 mi
7:00 PM36 °FLight snow. Overcast.15 mph81%30.21 "Hg6 mi
6:30 PM36 °FLight snow. Overcast.15 mph81%30.21 "Hg6 mi
6:00 PM39 °FMostly cloudy.15 mph70%30.18 "HgN/A
5:30 PM39 °FMostly cloudy.17 mph75%30.18 "HgN/A
5:00 PM43 °FSunny.17 mph71%30.18 "Hg10 mi
4:30 PM43 °FSunny.22 mph71%30.15 "Hg10 mi
4:00 PM48 °FSunny.20 mph62%30.15 "Hg10 mi
3:30 PM52 °FPassing clouds.20 mph50%30.15 "HgN/A
3:00 PM52 °FSunny.17 mph41%30.15 "Hg10 mi
2:30 PM50 °FMostly cloudy.13 mph43%30.15 "HgN/A
2:00 PM48 °FOvercast.10 mph43%30.18 "HgN/A
1:30 PM48 °FOvercast.13 mph43%30.18 "HgN/A
1:00 PM46 °FOvercast.13 mph57%30.18 "HgN/A
12:30 PM45 °FOvercast.8 mph61%30.21 "HgN/A
12:00 PM43 °FOvercast.6 mph71%30.21 "HgN/A
11:30 AM43 °FOvercast.6 mph71%30.21 "HgN/A
11:00 AM41 °FLight rain. Partly sunny.6 mph76%30.21 "Hg6 mi
10:30 AM41 °FLight rain. Partly sunny.3 mph76%30.21 "Hg6 mi
10:00 AM41 °FLight rain. Partly sunny.3 mph70%30.21 "Hg6 mi
9:30 AM39 °FSunny.1 mph75%30.21 "Hg10 mi
9:00 AM37 °FSunny.1 mph75%30.21 "Hg10 mi
8:30 AM36 °FSunny.3 mph81%30.21 "Hg10 mi
8:00 AM34 °FClear.1 mph87%30.21 "Hg10 mi
7:30 AM34 °FClear.1 mph87%30.21 "Hg10 mi
7:00 AM32 °FClear.1 mph87%30.21 "Hg10 mi
6:30 AM32 °FClear.1 mph87%30.21 "Hg10 mi
6:00 AM28 °FClear.1 mph86%30.24 "Hg10 mi
5:00 AM30 °FClear.3 mph80%30.24 "Hg10 mi
4:00 AM30 °FClear.3 mph80%30.24 "Hg10 mi
3:00 AM30 °FClear.3 mph80%30.27 "Hg10 mi
2:00 AM32 °FClear.6 mph75%30.27 "Hg10 mi
1:00 AM34 °FClear.6 mph70%30.27 "Hg10 mi
12:00 AM36 °FClear.3 mph65%30.27 "Hg10 mi
Weather by CustomWeather, © 2015

See weather overviewHow to use our weather pages